DW7322 Weather Reports


Display with metric or nautical units.
time (UTC)temp
F
wind
direction
speed
MPH
gust
MPH
rain 1hr
in
rain 24hr
in
rain mn
in
humidity
%
barometer
mb
20260902153058 85 139 0.0 0.0 0.00 0.00 0.00 78 1013.7
20260902151504 83 253 0.0 0.0 0.00 0.00 0.00 82 1013.9
20260902150002 82 139 0.0 0.0 0.00 0.00 0.00 83 1013.9
20260902144526 81 264 0.0 0.0 0.00 0.00 0.00 84 1014.0
20260902143038 80 280 0.0 0.0 0.00 0.00 0.00 84 1014.1
20260902141601 79 280 0.0 0.0 0.00 0.00 0.00 89 1013.9
20260902140113 78 247 0.0 0.0 0.00 0.00 0.00 91 1014.0
20260902134605 77 246 0.0 0.0 0.00 0.00 0.00 91 1014.1
20260902133012 76 246 0.0 0.0 0.00 0.00 0.00 93 1013.9
20260902131528 74 246 0.0 0.0 0.00 0.00 0.00 94 1013.9
20260902130026 72 246 0.0 0.0 0.00 0.00 0.00 94 1014.1
20260902124537 71 247 0.0 0.0 0.00 0.00 0.00 95 1014.1
20260902123100 71 247 0.0 0.0 0.00 0.00 0.00 95 1014.0
20260902121520 71 247 0.0 0.0 0.00 0.00 0.00 95 1014.0
20260902120049 71 246 0.0 0.0 0.00 0.00 0.00 95 1013.9
20260902114542 70 246 0.0 0.0 0.00 0.00 0.00 95 1013.6
20260902113053 70 247 0.0 0.0 0.00 0.00 0.00 95 1013.7
20260902111512 70 247 0.0 0.0 0.00 0.00 0.00 95 1013.7
20260902110129 71 246 0.0 0.0 0.00 0.00 0.00 95 1013.8
20260902104546 71 248 0.0 0.0 0.00 0.00 0.00 95 1014.0
20260902103101 71 247 0.0 0.0 0.00 0.00 0.00 95 1013.9
20260902101513 71 247 0.0 0.0 0.00 0.00 0.00 95 1014.0
20260902100042 71 246 0.0 0.0 0.00 0.00 0.00 95 1013.9
20260902094530 71 247 0.0 0.0 0.00 0.00 0.00 95 1013.9
20260902093047 71 247 0.0 0.0 0.00 0.00 0.00 95 1013.9
20260902091513 71 247 0.0 0.0 0.00 0.00 0.00 95 1013.7
20260902090018 71 247 0.0 0.0 0.00 0.00 0.00 95 1013.6
20260902084536 71 247 0.0 0.0 0.00 0.00 0.00 95 1013.4
20260902083059 72 246 0.0 0.0 0.00 0.00 0.00 95 1013.5
20260902081516 72 246 0.0 0.0 0.00 0.00 0.00 95 1013.5
20260902080040 72 247 0.0 0.0 0.00 0.00 0.00 95 1013.4
20260902074534 72 246 0.0 0.0 0.00 0.00 0.00 95 1013.5
20260902073004 72 246 0.0 0.0 0.00 0.00 0.00 95 1013.4
20260902071527 73 246 0.0 0.0 0.00 0.00 0.00 95 1013.3
20260902070048 73 247 0.0 0.0 0.00 0.00 0.00 95 1013.4
20260902064549 72 246 0.0 0.0 0.00 0.00 0.00 95 1013.4
20260902063032 73 247 0.0 0.0 0.00 0.00 0.00 95 1013.7
20260902061556 73 247 0.0 0.0 0.00 0.00 0.00 95 1013.5
20260902060106 73 247 0.0 0.0 0.00 0.00 0.00 95 1013.6
20260902054555 73 246 0.0 0.0 0.00 0.00 0.00 95 1013.4
20260902053017 73 246 0.0 0.0 0.00 0.00 0.00 95 1013.4
20260902051545 74 246 0.0 0.0 0.00 0.00 0.00 95 1013.6
20260902050101 74 246 0.0 0.0 0.00 0.00 0.00 94 1013.5
20260902044605 74 246 0.0 0.0 0.00 0.00 0.00 94 1013.6
20260902043015 74 247 0.0 0.0 0.00 0.00 0.00 94 1013.5
20260902041542 75 246 0.0 0.0 0.00 0.00 0.00 93 1013.5
20260902040104 75 246 0.0 0.0 0.00 0.00 0.00 93 1013.6
20260902034601 75 247 0.0 0.0 0.00 0.00 0.00 93 1013.6
20260902033020 76 247 0.0 0.0 0.00 0.00 0.00 93 1013.7
20260902031553 76 247 0.0 0.0 0.00 0.00 0.00 93 1013.7
20260902024558 77 247 0.0 0.0 0.00 0.00 0.00 92 1013.7
20260902023028 77 247 0.0 0.0 0.00 0.00 0.00 92 1013.6
20260902021538 77 247 0.0 0.0 0.00 0.00 0.00 92 1013.6
20260902014544 78 246 0.0 0.0 0.00 0.00 0.00 92 1013.3
20260902013004 79 247 0.0 0.0 0.00 0.00 0.00 91 1013.2
20260902011531 79 246 0.0 0.0 0.00 0.00 0.00 90 1013.0
20260902010100 80 246 0.0 0.0 0.00 0.00 0.00 89 1012.7
20260902004548 81 246 0.0 0.0 0.00 0.00 0.00 87 1012.5
20260902003016 83 246 0.0 0.0 0.00 0.00 0.00 85 1012.5
20260902001538 84 247 0.0 0.0 0.00 0.00 0.00 83 1012.5
20260902000058 85 247 0.0 0.0 0.00 0.00 0.00 81 1012.5
20260901234602 87 247 0.0 0.0 0.00 0.00 0.00 81 1012.5
20260901233013 87 247 0.0 0.0 0.00 0.00 0.00 78 1012.6
20260901231545 88 247 0.0 0.0 0.00 0.00 0.00 77 1012.7
20260901230109 89 247 0.0 0.0 0.00 0.00 0.00 77 1012.8
20260901224557 90 247 0.0 0.0 0.00 0.00 0.00 75 1012.8
20260901223025 91 246 0.0 0.0 0.00 0.00 0.00 75 1012.9
20260901221552 91 247 0.0 0.0 0.00 0.00 0.00 74 1012.9
20260901220112 92 247 0.0 0.0 0.00 0.00 0.00 74 1012.8
20260901214505 92 246 0.0 0.0 0.00 0.00 0.00 73 1012.8
20260901213033 92 246 0.0 0.0 0.00 0.00 0.00 73 1012.8
20260901211545 93 85 0.0 0.0 0.00 0.00 0.00 72 1012.9
20260901210106 93 86 0.0 0.0 0.00 0.00 0.00 69 1013.0
20260901204602 93 296 0.0 0.0 0.00 0.00 0.00 70 1013.0
20260901203023 94 231 0.0 0.0 0.00 0.00 0.00 70 1013.1
20260901201548 95 232 0.0 0.0 0.00 0.00 0.00 67 1013.1
20260901194601 94 297 0.0 0.0 0.00 0.00 0.00 68 1013.2
20260901193018 94 250 0.0 0.0 0.00 0.00 0.00 68 1013.3
20260901191542 95 246 0.0 0.0 0.00 0.00 0.00 66 1013.4
20260901190058 94 250 0.0 0.0 0.00 0.00 0.00 69 1013.4
20260901184600 94 346 0.0 0.0 0.00 0.00 0.00 72 1013.5
20260901183022 94 232 0.0 0.0 0.00 0.00 0.00 71 1013.7
20260901181534 94 246 0.0 0.0 0.00 0.00 0.00 71 1013.7
20260901180058 94 269 0.0 0.0 0.00 0.00 0.00 70 1013.7
20260901174553 94 233 0.0 0.0 0.00 0.00 0.00 72 1014.0
20260901173139 93 259 0.0 0.0 0.00 0.00 0.00 72 1013.9
20260901171531 92 316 0.0 0.0 0.00 0.00 0.00 73 1013.9
20260901170029 92 286 0.0 0.0 0.00 0.00 0.00 72 1014.2
20260901164532 91 250 0.0 0.0 0.00 0.00 0.00 75 1014.2
20260901163107 90 295 0.0 0.0 0.00 0.00 0.00 74 1014.2
20260901161508 90 307 0.0 0.0 0.00 0.00 0.00 77 1014.4
20260901160002 90 232 0.0 0.0 0.00 0.00 0.00 76 1014.3
20260901154515 89 220 0.0 0.0 0.00 0.00 0.00 77 1014.2